• In Hungary
  • List of Countries
  • For 7 days
  • Water Temperature
  • Satellite Maps
  • Weather Map
  • News
  • Weather Widgets
  • user-avatar
    Login

    Hourly Weather Danilovka

    Today, 17 July, Tuesday

    Time Temperature Precipitation Wind Pressure Humidity
    00:00 +20°C° 0 mm 4 mps 745 mmHg 85%
    01:00 +20°C° 0 mm 4 mps 745 mmHg 84%
    02:00 +20°C° 0 mm 4 mps 745 mmHg 83%
    03:00 +20°C° 0 mm 4 mps 745 mmHg 81%
    04:00 +19°C° 0 mm 4 mps 744 mmHg 80%
    05:00 +20°C° 0 mm 4 mps 745 mmHg 80%
    06:00 +20°C° 0 mm 4 mps 745 mmHg 79%
    07:00 +20°C° 0 mm 4 mps 745 mmHg 79%
    08:00 +21°C° 0 mm 5 mps 745 mmHg 76%
    09:00 +23°C° 0 mm 5 mps 745 mmHg 73%
    10:00 +25°C° 0 mm 5 mps 745 mmHg 71%
    11:00 +26°C° 0 mm 6 mps 744 mmHg 68%
    12:00 +27°C° 0 mm 6 mps 744 mmHg 65%
    13:00 +29°C° 0 mm 6 mps 744 mmHg 62%
    14:00 +29°C° 0 mm 6 mps 744 mmHg 63%
    15:00 +29°C° 0 mm 5 mps 743 mmHg 64%
    16:00 +29°C° 0 mm 5 mps 743 mmHg 66%
    17:00 +28°C° 0 mm 5 mps 743 mmHg 69%
    18:00 +27°C° 0 mm 5 mps 743 mmHg 71%
    19:00 +27°C° 0 mm 5 mps 743 mmHg 74%
    20:00 +25°C° 0.2 mm 4 mps 743 mmHg 76%
    21:00 +23°C° 0.2 mm 4 mps 743 mmHg 78%
    22:00 +22°C° 0.2 mm 4 mps 743 mmHg 80%
    23:00 +22°C° 0.9 mm 4 mps 743 mmHg 83%

    Tomorrow, 18 July, Wednesday

    Time Temperature Precipitation Wind Pressure Humidity
    00:00 +21°C° 0.9 mm 4 mps 742 mmHg 86%
    01:00 +20°C° 0.9 mm 5 mps 742 mmHg 89%
    02:00 +20°C° 0.5 mm 5 mps 742 mmHg 88%
    03:00 +20°C° 0.5 mm 5 mps 742 mmHg 87%
    04:00 +19°C° 0.5 mm 5 mps 742 mmHg 86%
    05:00 +20°C° 0.2 mm 5 mps 742 mmHg 86%
    06:00 +20°C° 0.2 mm 5 mps 742 mmHg 85%
    07:00 +20°C° 0.2 mm 5 mps 742 mmHg 85%
    08:00 +21°C° 0.4 mm 5 mps 742 mmHg 84%
    09:00 +22°C° 0.4 mm 5 mps 742 mmHg 83%
    10:00 +23°C° 0.4 mm 5 mps 743 mmHg 82%
    11:00 +25°C° 0.1 mm 5 mps 743 mmHg 79%
    12:00 +26°C° 0.1 mm 5 mps 743 mmHg 75%
    13:00 +27°C° 0.1 mm 6 mps 743 mmHg 71%
    14:00 +27°C° 0.6 mm 5 mps 743 mmHg 72%
    15:00 +28°C° 0.6 mm 4 mps 743 mmHg 72%
    16:00 +28°C° 0.6 mm 4 mps 743 mmHg 72%
    17:00 +27°C° 0.2 mm 4 mps 743 mmHg 76%
    18:00 +26°C° 0.2 mm 4 mps 743 mmHg 79%
    19:00 +25°C° 0.2 mm 3 mps 743 mmHg 82%
    20:00 +24°C° 0.2 mm 3 mps 743 mmHg 85%
    21:00 +21°C° 0.2 mm 3 mps 743 mmHg 87%
    22:00 +20°C° 0.2 mm 3 mps 743 mmHg 90%
    23:00 +19°C° 0.4 mm 2 mps 743 mmHg 90%

    Day after tomorrow, 19 July, Thursday

    Time Temperature Precipitation Wind Pressure Humidity
    00:00 +19°C° 0.4 mm 2 mps 743 mmHg 91%
    01:00 +19°C° 0.4 mm 2 mps 743 mmHg 91%
    02:00 +18°C° 0.2 mm 2 mps 744 mmHg 91%
    03:00 +18°C° 0.2 mm 2 mps 744 mmHg 91%
    04:00 +18°C° 0.2 mm 2 mps 744 mmHg 92%
    05:00 +19°C° 0 mm 2 mps 744 mmHg 89%
    06:00 +20°C° 0 mm 2 mps 744 mmHg 87%
    07:00 +21°C° 0 mm 2 mps 744 mmHg 85%
    08:00 +23°C° 0 mm 2 mps 745 mmHg 80%
    09:00 +25°C° 0 mm 2 mps 745 mmHg 75%
    10:00 +27°C° 0 mm 2 mps 745 mmHg 70%
    11:00 +28°C° 0.4 mm 1 mps 745 mmHg 66%
    12:00 +29°C° 0.4 mm 1 mps 745 mmHg 63%
    13:00 +29°C° 0.4 mm 1 mps 745 mmHg 60%
    14:00 +30°C° 0.2 mm 1 mps 745 mmHg 59%
    15:00 +30°C° 0.2 mm 1 mps 745 mmHg 58%
    16:00 +30°C° 0.2 mm 1 mps 745 mmHg 58%
    17:00 +29°C° 0.2 mm 1 mps 745 mmHg 63%
    18:00 +28°C° 0.2 mm 1 mps 745 mmHg 69%
    19:00 +27°C° 0.2 mm 1 mps 745 mmHg 75%
    20:00 +26°C° 0 mm 1 mps 745 mmHg 78%
    21:00 +24°C° 0 mm 1 mps 745 mmHg 82%
    22:00 +23°C° 0 mm 1 mps 745 mmHg 86%
    23:00 +22°C° 0.1 mm 1 mps 745 mmHg 87%

    20 July, Friday

    Time Temperature Precipitation Wind Pressure Humidity
    00:00 +22°C° 0.1 mm 1 mps 745 mmHg 88%
    01:00 +21°C° 0.1 mm 1 mps 745 mmHg 90%
    02:00 +21°C° 0 mm 1 mps 745 mmHg 91%
    03:00 +20°C° 0 mm 1 mps 745 mmHg 92%
    04:00 +19°C° 0 mm 2 mps 745 mmHg 93%
    05:00 +19°C° 0 mm 2 mps 745 mmHg 89%
    06:00 +20°C° 0 mm 2 mps 745 mmHg 86%
    07:00 +21°C° 0 mm 2 mps 746 mmHg 83%
    08:00 +24°C° 0 mm 2 mps 745 mmHg 78%
    09:00 +25°C° 0 mm 2 mps 745 mmHg 73%
    10:00 +26°C° 0 mm 2 mps 745 mmHg 68%
    11:00 +27°C° 0 mm 2 mps 745 mmHg 66%
    12:00 +28°C° 0 mm 2 mps 745 mmHg 63%
    13:00 +29°C° 0 mm 3 mps 745 mmHg 60%
    14:00 +29°C° 0.1 mm 3 mps 745 mmHg 62%
    15:00 +29°C° 0.1 mm 3 mps 745 mmHg 63%
    16:00 +29°C° 0.1 mm 4 mps 745 mmHg 65%
    17:00 +28°C° 0.1 mm 4 mps 745 mmHg 70%
    18:00 +27°C° 0.1 mm 4 mps 744 mmHg 75%
    19:00 +26°C° 0.1 mm 3 mps 744 mmHg 80%
    20:00 +24°C° 0 mm 3 mps 744 mmHg 83%
    21:00 +22°C° 0 mm 4 mps 745 mmHg 85%
    22:00 +21°C° 0 mm 4 mps 745 mmHg 88%
    23:00 +20°C° 0 mm 4 mps 744 mmHg 88%

    21 July, Saturday

    Time Temperature Precipitation Wind Pressure Humidity
    00:00 +20°C° 0 mm 4 mps 744 mmHg 89%
    01:00 +19°C° 0 mm 4 mps 744 mmHg 90%
    02:00 +19°C° 0 mm 4 mps 744 mmHg 89%
    03:00 +19°C° 0 mm 4 mps 744 mmHg 88%
    04:00 +18°C° 0 mm 4 mps 744 mmHg 88%
    05:00 +19°C° 0 mm 4 mps 744 mmHg 85%
    06:00 +20°C° 0 mm 4 mps 744 mmHg 82%
    07:00 +21°C° 0 mm 5 mps 744 mmHg 79%
    08:00 +22°C° 0 mm 5 mps 744 mmHg 75%
    09:00 +24°C° 0 mm 6 mps 744 mmHg 71%
    10:00 +26°C° 0 mm 6 mps 744 mmHg 66%
    11:00 +27°C° 0 mm 6 mps 745 mmHg 64%
    12:00 +28°C° 0 mm 6 mps 745 mmHg 62%
    13:00 +29°C° 0 mm 6 mps 745 mmHg 60%
    14:00 +29°C° 0.1 mm 6 mps 745 mmHg 61%
    15:00 +29°C° 0.1 mm 6 mps 745 mmHg 63%
    16:00 +29°C° 0.1 mm 6 mps 744 mmHg 64%
    17:00 +28°C° 0.2 mm 6 mps 745 mmHg 68%
    18:00 +27°C° 0.2 mm 5 mps 745 mmHg 72%
    19:00 +26°C° 0.2 mm 5 mps 745 mmHg 76%
    20:00 +23°C° 0 mm 5 mps 745 mmHg 75%
    21:00 +22°C° 0 mm 5 mps 745 mmHg 74%
    22:00 +21°C° 0 mm 6 mps 745 mmHg 73%
    23:00 +20°C° 0 mm 6 mps 745 mmHg 72%

    22 July, Sunday

    Time Temperature Precipitation Wind Pressure Humidity
    00:00 +20°C° 0 mm 6 mps 745 mmHg 71%
    01:00 +19°C° 0 mm 5 mps 746 mmHg 69%
    02:00 +17°C° 0 mm 5 mps 746 mmHg 69%
    03:00 +17°C° 0 mm 5 mps 746 mmHg 70%
    04:00 +17°C° 0 mm 5 mps 746 mmHg 70%
    05:00 +17°C° 0 mm 5 mps 746 mmHg 71%
    06:00 +17°C° 0 mm 5 mps 746 mmHg 72%
    07:00 +19°C° 0 mm 6 mps 747 mmHg 73%
    08:00 +20°C° 0 mm 6 mps 747 mmHg 70%
    09:00 +21°C° 0 mm 6 mps 747 mmHg 66%
    10:00 +22°C° 0 mm 7 mps 746 mmHg 63%
    11:00 +23°C° 0 mm 7 mps 747 mmHg 61%
    12:00 +24°C° 0 mm 6 mps 747 mmHg 59%
    13:00 +26°C° 0 mm 6 mps 747 mmHg 57%
    14:00 +26°C° 0 mm 6 mps 747 mmHg 58%
    15:00 +26°C° 0 mm 5 mps 747 mmHg 60%
    16:00 +26°C° 0 mm 5 mps 747 mmHg 61%
    17:00 +25°C° 0 mm 5 mps 747 mmHg 63%
    18:00 +22°C° 0 mm 5 mps 747 mmHg 66%
    19:00 +21°C° 0 mm 5 mps 747 mmHg 68%
    20:00 +21°C° 0 mm 5 mps 747 mmHg 64%
    21:00 +20°C° 0 mm 5 mps 747 mmHg 59%
    22:00 +19°C° 0 mm 5 mps 748 mmHg 55%
    23:00 +19°C° 0 mm 5 mps 747 mmHg 55%
    Show more